TimeEDT,TemperatureF,Dew PointF,Humidity,Sea Level PressureIn,VisibilityMPH,Wind Direction,Wind SpeedMPH,Gust SpeedMPH,PrecipitationIn,Events,Conditions,WindDirDegrees,DateUTC
12:53 AM,66.0,62.1,87,29.96,10.0,Calm,Calm,-,N/A,,Scattered Clouds,0,2013-08-06 04:53:00
1:53 AM,66.9,62.1,84,29.95,10.0,Calm,Calm,-,N/A,,Overcast,0,2013-08-06 05:53:00
2:53 AM,66.0,63.0,90,29.94,10.0,Calm,Calm,-,N/A,,Overcast,0,2013-08-06 06:53:00
3:53 AM,64.9,62.1,90,29.93,9.0,Calm,Calm,-,N/A,,Scattered Clouds,0,2013-08-06 07:53:00
4:53 AM,64.9,62.1,90,29.94,8.0,Calm,Calm,-,N/A,,Overcast,0,2013-08-06 08:53:00
5:53 AM,66.0,63.0,90,29.94,10.0,Calm,Calm,-,N/A,,Overcast,0,2013-08-06 09:53:00
6:53 AM,66.0,63.0,90,29.96,8.0,Calm,Calm,-,N/A,,Overcast,0,2013-08-06 10:53:00
7:53 AM,66.9,63.0,87,29.99,9.0,Calm,Calm,-,N/A,,Mostly Cloudy,0,2013-08-06 11:53:00
8:53 AM,70.0,63.0,78,29.99,10.0,Calm,Calm,-,N/A,,Overcast,0,2013-08-06 12:53:00
9:53 AM,72.0,63.0,73,30.00,10.0,Calm,Calm,-,N/A,,Overcast,0,2013-08-06 13:53:00
10:53 AM,73.9,63.0,68,30.01,10.0,SSW,4.6,-,N/A,,Overcast,200,2013-08-06 14:53:00
11:53 AM,77.0,63.0,62,30.00,10.0,Calm,Calm,-,N/A,,Mostly Cloudy,0,2013-08-06 15:53:00
12:53 PM,79.0,63.0,58,29.99,10.0,Calm,Calm,-,N/A,,Mostly Cloudy,0,2013-08-06 16:53:00
1:53 PM,82.0,64.0,54,29.98,10.0,Variable,6.9,-,N/A,,Mostly Cloudy,0,2013-08-06 17:53:00
2:53 PM,82.0,63.0,52,29.96,10.0,Variable,4.6,-,N/A,,Mostly Cloudy,0,2013-08-06 18:53:00
3:53 PM,82.9,63.0,51,29.95,10.0,SSW,4.6,-,N/A,,Mostly Cloudy,200,2013-08-06 19:53:00
4:53 PM,84.0,64.0,51,29.94,10.0,Calm,Calm,-,N/A,,Mostly Cloudy,0,2013-08-06 20:53:00
5:53 PM,82.9,64.0,53,29.95,10.0,Variable,4.6,-,N/A,,Overcast,0,2013-08-06 21:53:00
6:53 PM,82.0,64.0,54,29.95,10.0,Calm,Calm,-,N/A,,Mostly Cloudy,0,2013-08-06 22:53:00
7:53 PM,81.0,64.0,56,29.94,10.0,Calm,Calm,-,N/A,,Mostly Cloudy,0,2013-08-06 23:53:00
8:53 PM,75.0,68.0,79,29.95,10.0,Calm,Calm,-,N/A,,Mostly Cloudy,0,2013-08-07 00:53:00
9:53 PM,73.9,68.0,82,29.96,10.0,Calm,Calm,-,N/A,,Mostly Cloudy,0,2013-08-07 01:53:00
10:53 PM,73.0,69.1,87,29.96,10.0,North,3.5,-,N/A,,Mostly Cloudy,360,2013-08-07 02:53:00
11:53 PM,75.0,66.9,76,29.97,10.0,SE,5.8,-,N/A,,Mostly Cloudy,140,2013-08-07 03:53:00